{"data":{"norad_id":61965,"epoch":"2026-05-25T03:23:49.654752Z","epoch_age_seconds":62563,"freshness":"FRESH","line1":"1 61965U 24210G   26145.14154693  .00023443  00000+0  85833-3 0  9992","line2":"2 61965  43.0033 101.0264 0000851 270.5717  89.5037 15.27594927 86680","mean_motion":15.27594927,"eccentricity":8.51e-5,"inclination_deg":43.0033,"raan_deg":101.0264,"arg_perigee_deg":270.5717,"mean_anomaly_deg":89.5037,"bstar":0.00085833,"rev_number":8668,"period_min":94.265827579565,"perigee_km":482.42051646255,"apogee_km":483.58828272876,"semimajor_km":6861.1413995957,"source":"CELESTRAK","updated_at":"2026-05-25T13:38:19.492358Z"}}